Home   Weather   Victoria   Past weeks

Flag for Seychelles Past Weather in Victoria, Seychelles — Yesterday and Last 2 Weeks

Now
82 °F

Passing clouds.


Feels Like: 91 °F
Forecast: 77 / 81 °F
Wind: 13 mph from Southeast

Location: National Airport

Current Time: May 24, 2017 at 7:50:04 pm

Latest Report: May 24, 2017 at 7:00 pm


Visibility: N/A

Pressure: 29.80 "Hg

Humidity: 84%

Dew Point: 77 °F

Location of VictoriaLocation

Past Weather in Victoria — Graph

°F

Victoria Temperature Yesterday

Maximum temperature yesterday: 86 °F (at 11:00 am)
Minimum temperature yesterday: 81 °F (at 12:00 am)
Average temperature yesterday: 82 °F

High & Low Weather Summary for the Past Weeks

 TemperatureHumidityPressure
High88 °F (May 10, 11:00 am)100% (May 11, 10:00 pm)29.95 "Hg (May 11, 10:00 pm)
Low77 °F (May 12, 8:00 pm)62% (May 22, 10:00 am)29.77 "Hg (May 11, 3:00 pm)
Average83 °F79%29.85 "Hg
* Reported May 9 6:00 pm — May 24 6:00 pm, Victoria. Weather by CustomWeather, © 2017

Note: Actual official high and low records may vary slightly from our data, if they occured in-between our weather recording intervals... More about our weather records

Advertising

Victoria Weather History for the Previous 24 Hours

Scroll right to see more
 ConditionsComfort  
Time TempWeatherWind HumidityBarometerVisibility
6:00 pm
Wed, May 24
82 °FPartly sunny.13 mph84%29.80 "HgN/A
5:00 pm82 °FScattered clouds.12 mph84%29.77 "HgN/A
4:00 pm84 °FPassing clouds.12 mph79%29.77 "HgN/A
3:00 pm84 °FScattered clouds.15 mph79%29.77 "HgN/A
2:00 pm84 °FScattered clouds.14 mph84%29.80 "HgN/A
1:00 pm86 °FScattered clouds.14 mph79%29.80 "HgN/A
12:00 pm86 °FScattered clouds.17 mph79%29.83 "HgN/A
11:00 am84 °FPartly sunny.15 mph84%29.83 "HgN/A
10:00 am82 °FPartly sunny.12 mph84%29.86 "HgN/A
9:00 am82 °FScattered clouds.12 mph84%29.86 "HgN/A
8:00 am81 °FScattered clouds.9 mph89%29.83 "HgN/A
7:00 am81 °FPartly sunny.9 mph84%29.83 "HgN/A
6:00 am79 °FPassing clouds.10 mph89%29.80 "HgN/A
5:00 am79 °FPassing clouds.8 mph89%29.80 "HgN/A
4:00 am79 °FSprinkles. Passing clouds.14 mph94%29.77 "HgN/A
3:00 am81 °FPassing clouds.13 mph89%29.80 "HgN/A
2:00 am79 °FPassing clouds.8 mph94%29.80 "HgN/A
1:00 am81 °FPassing clouds.2 mph89%29.83 "HgN/A
12:00 am81 °FPassing clouds.14 mph89%29.83 "HgN/A
11:00 pm
Tue, May 23
81 °FPassing clouds.9 mph89%29.86 "HgN/A
10:00 pm81 °FSprinkles. Passing clouds.10 mph89%29.86 "HgN/A
9:00 pm81 °FPassing clouds.18 mph89%29.83 "HgN/A
7:00 pm81 °FSprinkles. Passing clouds.9 mph84%29.83 "HgN/A
Weather by CustomWeather, © 2017

See weather overviewHow to use our weather pages